owner,sensor,date,latitude,longitude,vertical_datum,wind_speed,wind_to_direction,wind_speed_of_gust,qcFlag 
COMPS,ioos:station:USF.COMPS:FHP:1,2017-11-01T00:00:00Z,28.1530,-82.8010,10.0,3.58,29.77,4.11,'1111122,1111122,1111122' 
COMPS,ioos:station:USF.COMPS:FHP:1,2017-11-01T00:06:00Z,28.1530,-82.8010,10.0,3.26,31.84,4.11,'1111122,1111122,1111122' 
COMPS,ioos:station:USF.COMPS:FHP:1,2017-11-01T00:12:00Z,28.1530,-82.8010,10.0,2.96,32.75,3.72,'1111122,1111122,1111122' 
COMPS,ioos:station:USF.COMPS:FHP:1,2017-11-01T00:18:00Z,28.1530,-82.8010,10.0,2.95,34.66,4.11,'1111122,1111122,1111122' 
COMPS,ioos:station:USF.COMPS:FHP:1,2017-11-01T00:24:00Z,28.1530,-82.8010,10.0,3.36,33.85,4.41,'1111122,1111122,1111122' 
COMPS,ioos:station:USF.COMPS:FHP:1,2017-11-01T00:30:00Z,28.1530,-82.8010,10.0,3.31,33.51,3.91,'1111122,1111122,1111122' 
COMPS,ioos:station:USF.COMPS:FHP:1,2017-11-01T00:36:00Z,28.1530,-82.8010,10.0,3.34,33.6,4.5,'1111122,1111122,1111122' 
COMPS,ioos:station:USF.COMPS:FHP:1,2017-11-01T00:42:00Z,28.1530,-82.8010,10.0,3.57,36.84,4.7,'1111122,1111122,1111122' 
COMPS,ioos:station:USF.COMPS:FHP:1,2017-11-01T00:48:00Z,28.1530,-82.8010,10.0,3.26,39.0,4.5,'1111122,1111122,1111122' 
COMPS,ioos:station:USF.COMPS:FHP:1,2017-11-01T00:54:00Z,28.1530,-82.8010,10.0,2.8,44.27,3.52,'1111122,1111122,1111122' 
COMPS,ioos:station:USF.COMPS:FHP:1,2017-11-01T01:00:00Z,28.1530,-82.8010,10.0,2.95,48.69,3.52,'1111122,1111122,1111122' 
COMPS,ioos:station:USF.COMPS:FHP:1,2017-11-01T01:06:00Z,28.1530,-82.8010,10.0,3.17,52.63,3.72,'1111122,1111122,1111122' 
COMPS,ioos:station:USF.COMPS:FHP:1,2017-11-01T01:12:00Z,28.1530,-82.8010,10.0,3.23,56.59,3.62,'1111122,1111122,1111122' 
COMPS,ioos:station:USF.COMPS:FHP:1,2017-11-01T01:18:00Z,28.1530,-82.8010,10.0,3.34,58.53,4.01,'1111122,1111122,1111122' 
COMPS,ioos:station:USF.COMPS:FHP:1,2017-11-01T01:24:00Z,28.1530,-82.8010,10.0,3.41,54.15,3.82,'1111122,1111122,1111122' 
COMPS,ioos:station:USF.COMPS:FHP:1,2017-11-01T01:30:00Z,28.1530,-82.8010,10.0,3.36,54.33,3.82,'1111122,1111122,1111122' 
COMPS,ioos:station:USF.COMPS:FHP:1,2017-11-01T01:36:00Z,28.1530,-82.8010,10.0,3.01,56.12,3.42,'1111122,1111122,1111122' 
COMPS,ioos:station:USF.COMPS:FHP:1,2017-11-01T01:42:00Z,28.1530,-82.8010,10.0,2.93,55.53,3.33,'1111122,1111122,1111122' 
COMPS,ioos:station:USF.COMPS:FHP:1,2017-11-01T01:48:00Z,28.1530,-82.8010,10.0,3.1,57.73,3.42,'1111122,1111122,1111122' 
COMPS,ioos:station:USF.COMPS:FHP:1,2017-11-01T01:54:00Z,28.1530,-82.8010,10.0,3.09,57.66,3.52,'1111122,1111122,1111122' 
COMPS,ioos:station:USF.COMPS:FHP:1,2017-11-01T02:00:00Z,28.1530,-82.8010,10.0,2.73,54.47,3.13,'1111122,1111122,1111122' 
COMPS,ioos:station:USF.COMPS:FHP:1,2017-11-01T02:06:00Z,28.1530,-82.8010,10.0,2.78,54.57,3.42,'1111122,1111122,1111122' 
COMPS,ioos:station:USF.COMPS:FHP:1,2017-11-01T02:12:00Z,28.1530,-82.8010,10.0,3.25,60.38,3.82,'1111122,1111122,1111122' 
COMPS,ioos:station:USF.COMPS:FHP:1,2017-11-01T02:18:00Z,28.1530,-82.8010,10.0,3.31,63.73,3.72,'1111122,1111122,1111122' 
COMPS,ioos:station:USF.COMPS:FHP:1,2017-11-01T02:24:00Z,28.1530,-82.8010,10.0,3.5,62.47,4.01,'1111122,1111122,1111122' 
COMPS,ioos:station:USF.COMPS:FHP:1,2017-11-01T02:30:00Z,28.1530,-82.8010,10.0,3.45,60.37,3.82,'1111122,1111122,1111122' 
COMPS,ioos:station:USF.COMPS:FHP:1,2017-11-01T02:36:00Z,28.1530,-82.8010,10.0,3.51,61.83,3.91,'1111122,1111122,1111122' 
COMPS,ioos:station:USF.COMPS:FHP:1,2017-11-01T02:42:00Z,28.1530,-82.8010,10.0,3.41,65.63,3.91,'1111122,1111122,1111122' 
COMPS,ioos:station:USF.COMPS:FHP:1,2017-11-01T02:48:00Z,28.1530,-82.8010,10.0,3.11,66.35,3.52,'1111122,1111122,1111122' 
COMPS,ioos:station:USF.COMPS:FHP:1,2017-11-01T02:54:00Z,28.1530,-82.8010,10.0,3.12,66.27,3.52,'1111122,1111122,1111122' 
COMPS,ioos:station:USF.COMPS:FHP:1,2017-11-01T03:00:00Z,28.1530,-82.8010,10.0,3.09,66.18,3.52,'1111122,1111122,1111122' 
COMPS,ioos:station:USF.COMPS:FHP:1,2017-11-01T03:06:00Z,28.1530,-82.8010,10.0,3.1,68.22,3.52,'1111122,1111122,1111122' 
COMPS,ioos:station:USF.COMPS:FHP:1,2017-11-01T03:12:00Z,28.1530,-82.8010,10.0,3.14,69.86,3.62,'1111122,1111122,1111122' 
COMPS,ioos:station:USF.COMPS:FHP:1,2017-11-01T03:18:00Z,28.1530,-82.8010,10.0,3.11,70.41,3.52,'1111122,1111122,1111122' 
COMPS,ioos:station:USF.COMPS:FHP:1,2017-11-01T03:24:00Z,28.1530,-82.8010,10.0,3.32,73.65,3.72,'1111122,1111122,1111122' 
COMPS,ioos:station:USF.COMPS:FHP:1,2017-11-01T03:30:00Z,28.1530,-82.8010,10.0,3.54,74.94,4.01,'1111122,1111122,1111122' 
COMPS,ioos:station:USF.COMPS:FHP:1,2017-11-01T03:36:00Z,28.1530,-82.8010,10.0,3.43,74.33,3.82,'1111122,1111122,1111122' 
COMPS,ioos:station:USF.COMPS:FHP:1,2017-11-01T03:42:00Z,28.1530,-82.8010,10.0,3.62,76.84,4.21,'1111122,1111122,1111122' 
COMPS,ioos:station:USF.COMPS:FHP:1,2017-11-01T03:48:00Z,28.1530,-82.8010,10.0,3.81,80.0,4.31,'1111122,1111122,1111122' 
COMPS,ioos:station:USF.COMPS:FHP:1,2017-11-01T03:54:00Z,28.1530,-82.8010,10.0,3.77,77.66,4.7,'1111122,1111122,1111122' 
COMPS,ioos:station:USF.COMPS:FHP:1,2017-11-01T04:00:00Z,28.1530,-82.8010,10.0,4.03,82.1,4.8,'1111122,1111122,1111122' 
COMPS,ioos:station:USF.COMPS:FHP:1,2017-11-01T04:06:00Z,28.1530,-82.8010,10.0,4.32,81.57,5.29,'1111122,1111122,1111122' 
COMPS,ioos:station:USF.COMPS:FHP:1,2017-11-01T04:12:00Z,28.1530,-82.8010,10.0,4.08,82.64,4.8,'1111122,1111122,1111122' 
COMPS,ioos:station:USF.COMPS:FHP:1,2017-11-01T04:18:00Z,28.1530,-82.8010,10.0,3.55,82.21,4.11,'1111122,1111122,1111122' 
COMPS,ioos:station:USF.COMPS:FHP:1,2017-11-01T04:24:00Z,28.1530,-82.8010,10.0,3.37,82.85,4.01,'1111122,1111122,1111122' 
COMPS,ioos:station:USF.COMPS:FHP:1,2017-11-01T04:30:00Z,28.1530,-82.8010,10.0,3.63,83.0,4.31,'1111122,1111122,1111122' 
COMPS,ioos:station:USF.COMPS:FHP:1,2017-11-01T04:36:00Z,28.1530,-82.8010,10.0,3.58,77.46,4.21,'1111122,1111122,1111122' 
COMPS,ioos:station:USF.COMPS:FHP:1,2017-11-01T04:42:00Z,28.1530,-82.8010,10.0,3.68,77.38,4.31,'1111122,1111122,1111122' 
COMPS,ioos:station:USF.COMPS:FHP:1,2017-11-01T04:48:00Z,28.1530,-82.8010,10.0,3.78,77.74,4.5,'1111122,1111122,1111122' 
COMPS,ioos:station:USF.COMPS:FHP:1,2017-11-01T04:54:00Z,28.1530,-82.8010,10.0,3.93,80.75,4.41,'1111122,1111122,1111122' 
COMPS,ioos:station:USF.COMPS:FHP:1,2017-11-01T05:00:00Z,28.1530,-82.8010,10.0,4.08,83.03,4.8,'1111122,1111122,1111122' 
COMPS,ioos:station:USF.COMPS:FHP:1,2017-11-01T05:06:00Z,28.1530,-82.8010,10.0,4.15,85.42,4.6,'1111122,1111122,1111122' 
COMPS,ioos:station:USF.COMPS:FHP:1,2017-11-01T05:12:00Z,28.1530,-82.8010,10.0,4.04,89.05,4.9,'1111122,1111122,1111122' 
COMPS,ioos:station:USF.COMPS:FHP:1,2017-11-01T05:18:00Z,28.1530,-82.8010,10.0,3.91,91.68,4.6,'1111122,1111122,1111122' 
COMPS,ioos:station:USF.COMPS:FHP:1,2017-11-01T05:24:00Z,28.1530,-82.8010,10.0,3.97,91.14,4.5,'1111122,1111122,1111122' 
COMPS,ioos:station:USF.COMPS:FHP:1,2017-11-01T05:30:00Z,28.1530,-82.8010,10.0,3.9,85.71,4.5,'1111122,1111122,1111122' 
COMPS,ioos:station:USF.COMPS:FHP:1,2017-11-01T05:36:00Z,28.1530,-82.8010,10.0,4.1,79.41,4.7,'1111122,1111122,1111122' 
COMPS,ioos:station:USF.COMPS:FHP:1,2017-11-01T05:42:00Z,28.1530,-82.8010,10.0,4.3,86.13,4.9,'1111122,1111122,1111122' 
COMPS,ioos:station:USF.COMPS:FHP:1,2017-11-01T05:48:00Z,28.1530,-82.8010,10.0,4.21,89.96,4.99,'1111122,1111122,1111122' 
COMPS,ioos:station:USF.COMPS:FHP:1,2017-11-01T05:54:00Z,28.1530,-82.8010,10.0,4.35,86.24,4.9,'1111122,1111122,1111122' 
COMPS,ioos:station:USF.COMPS:FHP:1,2017-11-01T06:00:00Z,28.1530,-82.8010,10.0,4.44,83.95,4.99,'1111122,1111122,1111122' 
COMPS,ioos:station:USF.COMPS:FHP:1,2017-11-01T06:06:00Z,28.1530,-82.8010,10.0,4.11,82.93,4.7,'1111122,1111122,1111122' 
COMPS,ioos:station:USF.COMPS:FHP:1,2017-11-01T06:12:00Z,28.1530,-82.8010,10.0,4.2,83.72,4.9,'1111122,1111122,1111122' 
COMPS,ioos:station:USF.COMPS:FHP:1,2017-11-01T06:18:00Z,28.1530,-82.8010,10.0,4.22,81.22,5.09,'1111122,1111122,1111122' 
COMPS,ioos:station:USF.COMPS:FHP:1,2017-11-01T06:24:00Z,28.1530,-82.8010,10.0,4.36,84.46,5.09,'1111122,1111122,1111122' 
COMPS,ioos:station:USF.COMPS:FHP:1,2017-11-01T06:30:00Z,28.1530,-82.8010,10.0,4.27,85.96,4.9,'1111122,1111122,1111122' 
COMPS,ioos:station:USF.COMPS:FHP:1,2017-11-01T06:36:00Z,28.1530,-82.8010,10.0,4.36,89.96,5.09,'1111122,1111122,1111122' 
COMPS,ioos:station:USF.COMPS:FHP:1,2017-11-01T06:42:00Z,28.1530,-82.8010,10.0,4.39,91.37,5.09,'1111122,1111122,1111122' 
COMPS,ioos:station:USF.COMPS:FHP:1,2017-11-01T06:48:00Z,28.1530,-82.8010,10.0,4.51,88.07,4.99,'1111122,1111122,1111122' 
COMPS,ioos:station:USF.COMPS:FHP:1,2017-11-01T06:54:00Z,28.1530,-82.8010,10.0,4.57,85.66,5.39,'1111122,1111122,1111122' 
COMPS,ioos:station:USF.COMPS:FHP:1,2017-11-01T07:00:00Z,28.1530,-82.8010,10.0,4.39,86.3,4.9,'1111122,1111122,1111122' 
COMPS,ioos:station:USF.COMPS:FHP:1,2017-11-01T07:06:00Z,28.1530,-82.8010,10.0,4.36,86.12,5.09,'1111122,1111122,1111122' 
COMPS,ioos:station:USF.COMPS:FHP:1,2017-11-01T07:12:00Z,28.1530,-82.8010,10.0,4.5,90.68,5.29,'1111122,1111122,1111122' 
COMPS,ioos:station:USF.COMPS:FHP:1,2017-11-01T07:18:00Z,28.1530,-82.8010,10.0,4.11,88.74,4.6,'1111122,1111122,1111122' 
COMPS,ioos:station:USF.COMPS:FHP:1,2017-11-01T07:24:00Z,28.1530,-82.8010,10.0,4.31,91.74,4.8,'1111122,1111122,1111122' 
COMPS,ioos:station:USF.COMPS:FHP:1,2017-11-01T07:30:00Z,28.1530,-82.8010,10.0,3.99,97.08,4.6,'1111122,1111122,1111122' 
COMPS,ioos:station:USF.COMPS:FHP:1,2017-11-01T07:36:00Z,28.1530,-82.8010,10.0,4.18,100.74,4.99,'1111122,1111122,1111122' 
COMPS,ioos:station:USF.COMPS:FHP:1,2017-11-01T07:42:00Z,28.1530,-82.8010,10.0,4.18,106.07,4.7,'1111122,1111122,1111122' 
COMPS,ioos:station:USF.COMPS:FHP:1,2017-11-01T07:48:00Z,28.1530,-82.8010,10.0,3.98,106.66,4.6,'1111122,1111122,1111122' 
COMPS,ioos:station:USF.COMPS:FHP:1,2017-11-01T07:54:00Z,28.1530,-82.8010,10.0,4.22,107.33,4.8,'1111122,1111122,1111122' 
COMPS,ioos:station:USF.COMPS:FHP:1,2017-11-01T08:00:00Z,28.1530,-82.8010,10.0,4.45,106.28,5.48,'1111122,1111122,1111122' 
COMPS,ioos:station:USF.COMPS:FHP:1,2017-11-01T08:06:00Z,28.1530,-82.8010,10.0,4.76,102.46,5.78,'1111122,1111122,1111122' 
COMPS,ioos:station:USF.COMPS:FHP:1,2017-11-01T08:12:00Z,28.1530,-82.8010,10.0,4.54,102.85,5.19,'1111122,1111122,1111122' 
COMPS,ioos:station:USF.COMPS:FHP:1,2017-11-01T08:18:00Z,28.1530,-82.8010,10.0,4.81,102.56,5.68,'1111122,1111122,1111122' 
COMPS,ioos:station:USF.COMPS:FHP:1,2017-11-01T08:24:00Z,28.1530,-82.8010,10.0,4.78,99.53,5.97,'1111122,1111122,1111122' 
COMPS,ioos:station:USF.COMPS:FHP:1,2017-11-01T08:30:00Z,28.1530,-82.8010,10.0,4.84,97.33,5.68,'1111122,1111122,1111122' 
COMPS,ioos:station:USF.COMPS:FHP:1,2017-11-01T08:36:00Z,28.1530,-82.8010,10.0,4.78,98.87,5.48,'1111122,1111122,1111122' 
COMPS,ioos:station:USF.COMPS:FHP:1,2017-11-01T08:42:00Z,28.1530,-82.8010,10.0,4.37,96.94,5.09,'1111122,1111122,1111122' 
COMPS,ioos:station:USF.COMPS:FHP:1,2017-11-01T08:48:00Z,28.1530,-82.8010,10.0,4.25,96.06,4.9,'1111122,1111122,1111122' 
COMPS,ioos:station:USF.COMPS:FHP:1,2017-11-01T08:54:00Z,28.1530,-82.8010,10.0,4.09,98.32,5.09,'1111122,1111122,1111122' 
COMPS,ioos:station:USF.COMPS:FHP:1,2017-11-01T09:00:00Z,28.1530,-82.8010,10.0,3.89,96.8,4.6,'1111122,1111122,1111122' 
COMPS,ioos:station:USF.COMPS:FHP:1,2017-11-01T09:06:00Z,28.1530,-82.8010,10.0,4.0,100.17,4.6,'1111122,1111122,1111122' 
COMPS,ioos:station:USF.COMPS:FHP:1,2017-11-01T09:12:00Z,28.1530,-82.8010,10.0,4.35,101.18,4.99,'1111122,1111122,1111122' 
COMPS,ioos:station:USF.COMPS:FHP:1,2017-11-01T09:18:00Z,28.1530,-82.8010,10.0,4.5,100.92,5.19,'1111122,1111122,1111122' 
COMPS,ioos:station:USF.COMPS:FHP:1,2017-11-01T09:24:00Z,28.1530,-82.8010,10.0,4.72,98.48,5.48,'1111122,1111122,1111122' 
COMPS,ioos:station:USF.COMPS:FHP:1,2017-11-01T09:30:00Z,28.1530,-82.8010,10.0,4.54,102.51,5.58,'1111122,1111122,1111122' 
COMPS,ioos:station:USF.COMPS:FHP:1,2017-11-01T09:36:00Z,28.1530,-82.8010,10.0,4.77,101.8,5.58,'1111122,1111122,1111122' 
COMPS,ioos:station:USF.COMPS:FHP:1,2017-11-01T09:42:00Z,28.1530,-82.8010,10.0,4.8,105.15,5.78,'1111122,1111122,1111122' 
COMPS,ioos:station:USF.COMPS:FHP:1,2017-11-01T09:48:00Z,28.1530,-82.8010,10.0,4.52,105.28,4.99,'1111122,1111122,1111122' 
COMPS,ioos:station:USF.COMPS:FHP:1,2017-11-01T09:54:00Z,28.1530,-82.8010,10.0,4.5,103.09,5.58,'1111122,1111122,1111122' 
COMPS,ioos:station:USF.COMPS:FHP:1,2017-11-01T10:00:00Z,28.1530,-82.8010,10.0,4.72,98.33,5.58,'1111122,1111122,1111122' 
COMPS,ioos:station:USF.COMPS:FHP:1,2017-11-01T10:06:00Z,28.1530,-82.8010,10.0,4.77,96.22,5.87,'1111122,1111122,1111122' 
COMPS,ioos:station:USF.COMPS:FHP:1,2017-11-01T10:12:00Z,28.1530,-82.8010,10.0,4.67,93.76,5.48,'1111122,1111122,1111122' 
COMPS,ioos:station:USF.COMPS:FHP:1,2017-11-01T10:18:00Z,28.1530,-82.8010,10.0,4.38,95.99,5.19,'1111122,1111122,1111122' 
COMPS,ioos:station:USF.COMPS:FHP:1,2017-11-01T10:24:00Z,28.1530,-82.8010,10.0,3.83,94.4,4.8,'1111122,1111122,1111122' 
COMPS,ioos:station:USF.COMPS:FHP:1,2017-11-01T10:30:00Z,28.1530,-82.8010,10.0,4.22,90.39,5.09,'1111122,1111122,1111122' 
COMPS,ioos:station:USF.COMPS:FHP:1,2017-11-01T10:36:00Z,28.1530,-82.8010,10.0,4.6,94.64,5.48,'1111122,1111122,1111122' 
COMPS,ioos:station:USF.COMPS:FHP:1,2017-11-01T10:42:00Z,28.1530,-82.8010,10.0,4.32,98.85,5.09,'1111122,1111122,1111122' 
COMPS,ioos:station:USF.COMPS:FHP:1,2017-11-01T10:48:00Z,28.1530,-82.8010,10.0,4.75,96.49,5.68,'1111122,1111122,1111122' 
COMPS,ioos:station:USF.COMPS:FHP:1,2017-11-01T10:54:00Z,28.1530,-82.8010,10.0,4.27,100.36,5.19,'1111122,1111122,1111122' 
COMPS,ioos:station:USF.COMPS:FHP:1,2017-11-01T11:00:00Z,28.1530,-82.8010,10.0,4.67,97.46,5.78,'1111122,1111122,1111122' 
COMPS,ioos:station:USF.COMPS:FHP:1,2017-11-01T11:06:00Z,28.1530,-82.8010,10.0,4.67,93.76,5.58,'1111122,1111122,1111122' 
COMPS,ioos:station:USF.COMPS:FHP:1,2017-11-01T11:12:00Z,28.1530,-82.8010,10.0,4.13,95.03,4.6,'1111122,1111122,1111122' 
COMPS,ioos:station:USF.COMPS:FHP:1,2017-11-01T11:18:00Z,28.1530,-82.8010,10.0,3.84,96.25,4.5,'1111122,1111122,1111122' 
COMPS,ioos:station:USF.COMPS:FHP:1,2017-11-01T11:24:00Z,28.1530,-82.8010,10.0,3.9,95.01,4.5,'1111122,1111122,1111122' 
COMPS,ioos:station:USF.COMPS:FHP:1,2017-11-01T11:30:00Z,28.1530,-82.8010,10.0,4.18,92.65,4.99,'1111122,1111122,1111122' 
COMPS,ioos:station:USF.COMPS:FHP:1,2017-11-01T11:36:00Z,28.1530,-82.8010,10.0,4.3,96.99,4.99,'1111122,1111122,1111122' 
COMPS,ioos:station:USF.COMPS:FHP:1,2017-11-01T11:42:00Z,28.1530,-82.8010,10.0,3.96,95.51,4.9,'1111122,1111122,1111122' 
COMPS,ioos:station:USF.COMPS:FHP:1,2017-11-01T11:48:00Z,28.1530,-82.8010,10.0,3.9,94.01,4.41,'1111122,1111122,1111122' 
COMPS,ioos:station:USF.COMPS:FHP:1,2017-11-01T11:54:00Z,28.1530,-82.8010,10.0,4.08,90.57,4.8,'1111122,1111122,1111122' 
COMPS,ioos:station:USF.COMPS:FHP:1,2017-11-01T12:00:00Z,28.1530,-82.8010,10.0,4.52,88.15,5.39,'1111122,1111122,1111122' 
COMPS,ioos:station:USF.COMPS:FHP:1,2017-11-01T12:06:00Z,28.1530,-82.8010,10.0,4.17,88.52,5.09,'1111122,1111122,1111122' 
COMPS,ioos:station:USF.COMPS:FHP:1,2017-11-01T12:12:00Z,28.1530,-82.8010,10.0,4.15,86.92,4.9,'1111122,1111122,1111122' 
COMPS,ioos:station:USF.COMPS:FHP:1,2017-11-01T12:18:00Z,28.1530,-82.8010,10.0,4.22,85.91,4.9,'1111122,1111122,1111122' 
COMPS,ioos:station:USF.COMPS:FHP:1,2017-11-01T12:24:00Z,28.1530,-82.8010,10.0,3.98,85.26,4.8,'1111122,1111122,1111122' 
COMPS,ioos:station:USF.COMPS:FHP:1,2017-11-01T12:30:00Z,28.1530,-82.8010,10.0,4.12,85.99,4.8,'1111122,1111122,1111122' 
COMPS,ioos:station:USF.COMPS:FHP:1,2017-11-01T12:36:00Z,28.1530,-82.8010,10.0,4.04,86.93,4.7,'1111122,1111122,1111122' 
COMPS,ioos:station:USF.COMPS:FHP:1,2017-11-01T12:42:00Z,28.1530,-82.8010,10.0,4.1,88.53,4.9,'1111122,1111122,1111122' 
COMPS,ioos:station:USF.COMPS:FHP:1,2017-11-01T12:48:00Z,28.1530,-82.8010,10.0,4.07,87.27,5.29,'1111122,1111122,1111122' 
COMPS,ioos:station:USF.COMPS:FHP:1,2017-11-01T12:54:00Z,28.1530,-82.8010,10.0,4.19,83.86,4.7,'1111122,1111122,1111122' 
COMPS,ioos:station:USF.COMPS:FHP:1,2017-11-01T13:00:00Z,28.1530,-82.8010,10.0,4.31,84.57,4.99,'1111122,1111122,1111122' 
COMPS,ioos:station:USF.COMPS:FHP:1,2017-11-01T13:06:00Z,28.1530,-82.8010,10.0,4.3,85.9,4.9,'1111122,1111122,1111122' 
COMPS,ioos:station:USF.COMPS:FHP:1,2017-11-01T13:12:00Z,28.1530,-82.8010,10.0,3.9,86.52,5.09,'1111122,1111122,1111122' 
COMPS,ioos:station:USF.COMPS:FHP:1,2017-11-01T13:18:00Z,28.1530,-82.8010,10.0,3.41,83.81,3.72,'1111122,1111122,1111122' 
COMPS,ioos:station:USF.COMPS:FHP:1,2017-11-01T13:24:00Z,28.1530,-82.8010,10.0,3.38,83.81,4.21,'1111122,1111122,1111122' 
COMPS,ioos:station:USF.COMPS:FHP:1,2017-11-01T13:30:00Z,28.1530,-82.8010,10.0,3.25,88.49,4.11,'1111122,1111122,1111122' 
COMPS,ioos:station:USF.COMPS:FHP:1,2017-11-01T13:36:00Z,28.1530,-82.8010,10.0,3.12,89.52,3.72,'1111122,1111122,1111122' 
COMPS,ioos:station:USF.COMPS:FHP:1,2017-11-01T13:42:00Z,28.1530,-82.8010,10.0,3.5,81.8,4.5,'1111122,1111122,1111122' 
COMPS,ioos:station:USF.COMPS:FHP:1,2017-11-01T13:48:00Z,28.1530,-82.8010,10.0,3.68,83.71,4.41,'1111122,1111122,1111122' 
COMPS,ioos:station:USF.COMPS:FHP:1,2017-11-01T13:54:00Z,28.1530,-82.8010,10.0,3.49,87.34,4.31,'1111122,1111122,1111122' 
COMPS,ioos:station:USF.COMPS:FHP:1,2017-11-01T14:00:00Z,28.1530,-82.8010,10.0,3.05,90.67,3.82,'1111122,1111122,1111122' 
COMPS,ioos:station:USF.COMPS:FHP:1,2017-11-01T14:06:00Z,28.1530,-82.8010,10.0,3.0,91.99,3.62,'1111122,1111122,1111122' 
COMPS,ioos:station:USF.COMPS:FHP:1,2017-11-01T14:12:00Z,28.1530,-82.8010,10.0,2.48,86.2,3.23,'1111122,1111122,1111122' 
COMPS,ioos:station:USF.COMPS:FHP:1,2017-11-01T14:18:00Z,28.1530,-82.8010,10.0,2.85,81.01,3.72,'1111122,1111122,1111122' 
COMPS,ioos:station:USF.COMPS:FHP:1,2017-11-01T14:24:00Z,28.1530,-82.8010,10.0,3.51,76.15,4.01,'1111122,1111122,1111122' 
COMPS,ioos:station:USF.COMPS:FHP:1,2017-11-01T14:30:00Z,28.1530,-82.8010,10.0,3.47,77.38,4.31,'1111122,1111122,1111122' 
COMPS,ioos:station:USF.COMPS:FHP:1,2017-11-01T14:36:00Z,28.1530,-82.8010,10.0,3.52,77.59,4.21,'1111122,1111122,1111122' 
COMPS,ioos:station:USF.COMPS:FHP:1,2017-11-01T14:42:00Z,28.1530,-82.8010,10.0,3.53,79.5,4.5,'1111122,1111122,1111122' 
COMPS,ioos:station:USF.COMPS:FHP:1,2017-11-01T14:48:00Z,28.1530,-82.8010,10.0,3.31,89.48,4.8,'1111122,1111122,1111122' 
COMPS,ioos:station:USF.COMPS:FHP:1,2017-11-01T14:54:00Z,28.1530,-82.8010,10.0,3.26,90.64,4.21,'1111122,1111122,1111122' 
COMPS,ioos:station:USF.COMPS:FHP:1,2017-11-01T15:00:00Z,28.1530,-82.8010,10.0,3.7,90.65,4.8,'1111122,1111122,1111122' 
COMPS,ioos:station:USF.COMPS:FHP:1,2017-11-01T15:06:00Z,28.1530,-82.8010,10.0,3.52,102.17,4.6,'1111122,1111122,1111122' 
COMPS,ioos:station:USF.COMPS:FHP:1,2017-11-01T15:12:00Z,28.1530,-82.8010,10.0,4.02,102.46,4.99,'1111122,1111122,1111122' 
COMPS,ioos:station:USF.COMPS:FHP:1,2017-11-01T15:18:00Z,28.1530,-82.8010,10.0,3.22,97.3,4.01,'1111122,1111122,1111122' 
COMPS,ioos:station:USF.COMPS:FHP:1,2017-11-01T15:24:00Z,28.1530,-82.8010,10.0,3.27,99.0,4.01,'1111122,1111122,1111122' 
COMPS,ioos:station:USF.COMPS:FHP:1,2017-11-01T15:30:00Z,28.1530,-82.8010,10.0,3.67,102.41,4.9,'1111122,1111122,1111122' 
COMPS,ioos:station:USF.COMPS:FHP:1,2017-11-01T15:36:00Z,28.1530,-82.8010,10.0,4.2,94.29,5.48,'1111122,1111122,1111122' 
COMPS,ioos:station:USF.COMPS:FHP:1,2017-11-01T15:42:00Z,28.1530,-82.8010,10.0,3.74,95.46,5.29,'1111122,1111122,1111122' 
COMPS,ioos:station:USF.COMPS:FHP:1,2017-11-01T15:48:00Z,28.1530,-82.8010,10.0,4.38,92.1,5.68,'1111122,1111122,1111122' 
COMPS,ioos:station:USF.COMPS:FHP:1,2017-11-01T15:54:00Z,28.1530,-82.8010,10.0,3.54,94.87,5.19,'1111122,1111122,1111122' 
COMPS,ioos:station:USF.COMPS:FHP:1,2017-11-01T16:00:00Z,28.1530,-82.8010,10.0,3.75,81.79,4.9,'1111122,1111122,1111122' 
COMPS,ioos:station:USF.COMPS:FHP:1,2017-11-01T16:06:00Z,28.1530,-82.8010,10.0,4.0,95.42,5.68,'1111122,1111122,1111122' 
COMPS,ioos:station:USF.COMPS:FHP:1,2017-11-01T16:12:00Z,28.1530,-82.8010,10.0,3.48,88.33,5.29,'1111122,1111122,1111122' 
COMPS,ioos:station:USF.COMPS:FHP:1,2017-11-01T16:18:00Z,28.1530,-82.8010,10.0,3.07,94.46,4.5,'1111122,1111122,1111122' 
COMPS,ioos:station:USF.COMPS:FHP:1,2017-11-01T16:24:00Z,28.1530,-82.8010,10.0,1.16,101.53,3.03,'1111122,1111122,1111122' 
COMPS,ioos:station:USF.COMPS:FHP:1,2017-11-01T16:30:00Z,28.1530,-82.8010,10.0,2.98,70.43,4.5,'1111122,1111122,1111122' 
COMPS,ioos:station:USF.COMPS:FHP:1,2017-11-01T16:36:00Z,28.1530,-82.8010,10.0,1.82,83.21,4.21,'1111122,1111122,1111122' 
COMPS,ioos:station:USF.COMPS:FHP:1,2017-11-01T16:42:00Z,28.1530,-82.8010,10.0,3.2,129.24,4.6,'1111122,1111122,1111122' 
COMPS,ioos:station:USF.COMPS:FHP:1,2017-11-01T16:48:00Z,28.1530,-82.8010,10.0,1.99,128.03,3.23,'1111122,1111122,1111122' 
COMPS,ioos:station:USF.COMPS:FHP:1,2017-11-01T16:54:00Z,28.1530,-82.8010,10.0,3.29,102.07,4.21,'1111122,1111122,1111122' 
COMPS,ioos:station:USF.COMPS:FHP:1,2017-11-01T17:00:00Z,28.1530,-82.8010,10.0,2.57,108.12,5.58,'1111122,1111122,1111122' 
COMPS,ioos:station:USF.COMPS:FHP:1,2017-11-01T17:06:00Z,28.1530,-82.8010,10.0,2.43,110.43,4.99,'1111122,1111122,1111122' 
COMPS,ioos:station:USF.COMPS:FHP:1,2017-11-01T17:12:00Z,28.1530,-82.8010,10.0,3.46,121.38,6.17,'1111122,1111122,1111122' 
COMPS,ioos:station:USF.COMPS:FHP:1,2017-11-01T17:18:00Z,28.1530,-82.8010,10.0,2.8,137.85,4.9,'1111122,1111122,1111122' 
COMPS,ioos:station:USF.COMPS:FHP:1,2017-11-01T17:24:00Z,28.1530,-82.8010,10.0,2.39,145.39,3.42,'1111122,1111122,1111122' 
COMPS,ioos:station:USF.COMPS:FHP:1,2017-11-01T17:30:00Z,28.1530,-82.8010,10.0,2.07,145.63,4.7,'1111122,1111122,1111122' 
COMPS,ioos:station:USF.COMPS:FHP:1,2017-11-01T17:36:00Z,28.1530,-82.8010,10.0,3.51,108.08,4.99,'1111122,1111122,1111122' 
COMPS,ioos:station:USF.COMPS:FHP:1,2017-11-01T17:42:00Z,28.1530,-82.8010,10.0,3.44,108.91,4.9,'1111122,1111122,1111122' 
COMPS,ioos:station:USF.COMPS:FHP:1,2017-11-01T17:48:00Z,28.1530,-82.8010,10.0,2.39,156.43,4.01,'1111122,1111122,1111122' 
COMPS,ioos:station:USF.COMPS:FHP:1,2017-11-01T17:54:00Z,28.1530,-82.8010,10.0,1.47,171.86,2.25,'1111122,1111122,1111122' 
COMPS,ioos:station:USF.COMPS:FHP:1,2017-11-01T18:00:00Z,28.1530,-82.8010,10.0,1.69,180.39,2.64,'1111122,1111122,1111122' 
COMPS,ioos:station:USF.COMPS:FHP:1,2017-11-01T18:06:00Z,28.1530,-82.8010,10.0,1.7,337.54,2.84,'1111122,1111122,1111122' 
COMPS,ioos:station:USF.COMPS:FHP:1,2017-11-01T18:12:00Z,28.1530,-82.8010,10.0,2.14,348.84,4.41,'1111122,1111122,1111122' 
COMPS,ioos:station:USF.COMPS:FHP:1,2017-11-01T18:18:00Z,28.1530,-82.8010,10.0,3.97,349.62,5.48,'1111122,1111122,1111122' 
COMPS,ioos:station:USF.COMPS:FHP:1,2017-11-01T18:24:00Z,28.1530,-82.8010,10.0,3.36,349.6,5.19,'1111122,1111122,1111122' 
COMPS,ioos:station:USF.COMPS:FHP:1,2017-11-01T18:30:00Z,28.1530,-82.8010,10.0,4.03,331.26,4.7,'1111122,1111122,1111122' 
COMPS,ioos:station:USF.COMPS:FHP:1,2017-11-01T18:36:00Z,28.1530,-82.8010,10.0,4.37,326.36,4.8,'1111122,1111122,1111122' 
COMPS,ioos:station:USF.COMPS:FHP:1,2017-11-01T18:42:00Z,28.1530,-82.8010,10.0,4.01,347.72,4.41,'1111122,1111122,1111122' 
COMPS,ioos:station:USF.COMPS:FHP:1,2017-11-01T18:48:00Z,28.1530,-82.8010,10.0,3.72,352.91,4.7,'1111122,1111122,1111122' 
COMPS,ioos:station:USF.COMPS:FHP:1,2017-11-01T18:54:00Z,28.1530,-82.8010,10.0,4.46,354.51,5.29,'1111122,1111122,1111122' 
COMPS,ioos:station:USF.COMPS:FHP:1,2017-11-01T19:00:00Z,28.1530,-82.8010,10.0,4.29,347.99,5.09,'1111122,1111122,1111122' 
COMPS,ioos:station:USF.COMPS:FHP:1,2017-11-01T19:06:00Z,28.1530,-82.8010,10.0,4.63,344.94,5.29,'1111122,1111122,1111122' 
COMPS,ioos:station:USF.COMPS:FHP:1,2017-11-01T19:12:00Z,28.1530,-82.8010,10.0,4.75,341.22,5.48,'1111122,1111122,1111122' 
COMPS,ioos:station:USF.COMPS:FHP:1,2017-11-01T19:18:00Z,28.1530,-82.8010,10.0,4.88,342.11,5.87,'1111122,1111122,1111122' 
COMPS,ioos:station:USF.COMPS:FHP:1,2017-11-01T19:24:00Z,28.1530,-82.8010,10.0,4.94,349.83,5.78,'1111122,1111122,1111122' 
COMPS,ioos:station:USF.COMPS:FHP:1,2017-11-01T19:30:00Z,28.1530,-82.8010,10.0,5.0,352.66,5.58,'1111122,1111122,1111122' 
COMPS,ioos:station:USF.COMPS:FHP:1,2017-11-01T19:36:00Z,28.1530,-82.8010,10.0,4.79,352.6,5.29,'1111122,1111122,1111122' 